Time,TemperatureF,DewpointF,PressureIn,WindDirection,WindDirectionDegrees,WindSpeedMPH,WindSpeedGustMPH,Humidity,HourlyPrecipIn,Conditions,Clouds,dailyrainin,SoftwareType,DateUTC
2013-05-02 00:00:00,68.7,66.9,30.01,SSW,213,1.0,1.0,94,0.00,,,0.00,Wunderground v.1.15,2013-05-02 04:00:00,
2013-05-02 00:05:00,68.7,66.9,30.01,SSW,213,1.0,6.0,94,0.00,,,0.00,Wunderground v.1.15,2013-05-02 04:05:00,
2013-05-02 00:10:00,68.6,66.8,30.01,SSW,203,1.0,1.0,94,0.00,,,0.00,Wunderground v.1.15,2013-05-02 04:10:00,
2013-05-02 00:15:00,68.6,67.1,30.01,South,190,1.0,1.0,95,0.00,,,0.00,Wunderground v.1.15,2013-05-02 04:15:00,
2013-05-02 00:20:00,68.6,67.1,30.01,South,190,1.0,1.0,95,0.00,,,0.00,Wunderground v.1.15,2013-05-02 04:20:00,
2013-05-02 00:30:00,68.5,67.0,30.00,South,191,1.0,1.0,95,0.00,,,0.00,Wunderground v.1.15,2013-05-02 04:30:00,
2013-05-02 00:40:00,68.5,67.0,30.00,SSW,197,0.0,1.0,95,0.00,,,0.00,Wunderground v.1.15,2013-05-02 04:40:00,
2013-05-02 00:45:00,68.5,67.0,30.00,South,185,0.0,1.0,95,0.00,,,0.00,Wunderground v.1.15,2013-05-02 04:45:00,
2013-05-02 00:50:00,68.5,67.0,30.00,South,191,0.0,1.0,95,0.00,,,0.00,Wunderground v.1.15,2013-05-02 04:50:00,
2013-05-02 01:00:00,68.5,67.0,30.00,South,191,1.0,1.0,95,0.00,,,0.00,Wunderground v.1.15,2013-05-02 05:00:00,
2013-05-02 01:05:00,68.5,67.0,30.00,South,191,0.0,1.0,95,0.00,,,0.00,Wunderground v.1.15,2013-05-02 05:05:00,
2013-05-02 01:10:00,68.5,67.0,30.00,South,191,0.0,1.0,95,0.00,,,0.00,Wunderground v.1.15,2013-05-02 05:10:00,
2013-05-02 01:15:00,68.5,67.0,30.00,South,191,0.0,1.0,95,0.00,,,0.00,Wunderground v.1.15,2013-05-02 05:15:00,
2013-05-02 01:20:00,68.5,67.0,30.00,SW,233,0.0,1.0,95,0.00,,,0.00,Wunderground v.1.15,2013-05-02 05:20:00,
2013-05-02 01:25:00,68.6,67.1,30.00,SSW,192,1.0,2.0,95,0.00,,,0.00,Wunderground v.1.15,2013-05-02 05:25:00,
2013-05-02 01:30:00,68.6,67.1,30.00,SSW,192,1.0,1.0,95,0.00,,,0.00,Wunderground v.1.15,2013-05-02 05:30:00,
2013-05-02 01:35:00,68.6,67.1,29.99,South,189,1.0,2.0,95,0.00,,,0.00,Wunderground v.1.15,2013-05-02 05:35:00,
2013-05-02 01:45:00,68.7,67.2,29.99,South,185,1.0,4.0,95,0.00,,,0.00,Wunderground v.1.15,2013-05-02 05:45:00,
2013-05-02 01:50:00,68.7,67.2,29.99,South,185,1.0,5.0,95,0.00,,,0.00,Wunderground v.1.15,2013-05-02 05:50:00,
2013-05-02 01:55:00,68.6,67.1,29.98,SSW,195,1.0,5.0,95,0.00,,,0.00,Wunderground v.1.15,2013-05-02 05:55:00,
2013-05-02 02:00:00,68.7,67.2,29.99,SSW,195,0.0,1.0,95,0.00,,,0.00,Wunderground v.1.15,2013-05-02 06:00:00,
2013-05-02 02:05:00,68.7,67.2,29.98,SSW,195,0.0,1.0,95,0.00,,,0.00,Wunderground v.1.15,2013-05-02 06:05:00,
2013-05-02 02:10:00,68.7,67.2,29.98,SSW,195,0.0,1.0,95,0.00,,,0.00,Wunderground v.1.15,2013-05-02 06:10:00,
2013-05-02 02:15:00,68.6,67.1,29.98,SSW,195,0.0,1.0,95,0.00,,,0.00,Wunderground v.1.15,2013-05-02 06:15:00,
2013-05-02 02:20:00,68.7,67.2,29.98,SSW,195,0.0,1.0,95,0.00,,,0.00,Wunderground v.1.15,2013-05-02 06:20:00,
2013-05-02 02:25:00,68.7,67.2,29.97,SSW,199,1.0,1.0,95,0.00,,,0.00,Wunderground v.1.15,2013-05-02 06:25:00,
2013-05-02 02:30:00,68.7,67.2,29.97,South,180,1.0,1.0,95,0.00,,,0.00,Wunderground v.1.15,2013-05-02 06:30:00,
2013-05-02 02:35:00,68.7,67.2,29.97,South,180,1.0,1.0,95,0.00,,,0.00,Wunderground v.1.15,2013-05-02 06:35:00,
2013-05-02 02:40:00,68.7,67.2,29.97,South,180,0.0,1.0,95,0.00,,,0.00,Wunderground v.1.15,2013-05-02 06:40:00,
2013-05-02 02:45:00,68.7,67.2,29.98,South,180,0.0,1.0,95,0.00,,,0.00,Wunderground v.1.15,2013-05-02 06:45:00,
2013-05-02 02:50:00,68.7,67.2,29.98,South,180,0.0,1.0,95,0.00,,,0.00,Wunderground v.1.15,2013-05-02 06:50:00,
2013-05-02 02:55:00,68.7,67.2,29.98,South,180,0.0,1.0,95,0.00,,,0.00,Wunderground v.1.15,2013-05-02 06:55:00,
2013-05-02 03:00:00,68.7,67.2,29.97,South,180,0.0,1.0,95,0.00,,,0.00,Wunderground v.1.15,2013-05-02 07:00:00,
2013-05-02 03:10:00,68.6,67.1,29.96,South,185,2.0,6.0,95,0.00,,,0.00,Wunderground v.1.15,2013-05-02 07:10:00,
2013-05-02 03:15:00,68.6,67.1,29.96,SSW,194,2.0,6.0,95,0.00,,,0.00,Wunderground v.1.15,2013-05-02 07:15:00,
2013-05-02 03:20:00,68.6,67.1,29.96,South,185,1.0,1.0,95,0.00,,,0.00,Wunderground v.1.15,2013-05-02 07:20:00,
2013-05-02 03:25:00,68.6,67.1,29.95,South,180,1.0,4.0,95,0.00,,,0.00,Wunderground v.1.15,2013-05-02 07:25:00,
2013-05-02 03:35:00,68.6,67.4,29.95,South,185,1.0,1.0,96,0.00,,,0.00,Wunderground v.1.15,2013-05-02 07:35:00,
2013-05-02 03:40:00,68.6,67.4,29.95,South,189,0.0,1.0,96,0.00,,,0.00,Wunderground v.1.15,2013-05-02 07:40:00,
2013-05-02 03:45:00,68.6,67.4,29.95,South,189,0.0,1.0,96,0.00,,,0.00,Wunderground v.1.15,2013-05-02 07:45:00,
2013-05-02 03:55:00,68.7,67.5,29.95,South,191,1.0,1.0,96,0.00,,,0.00,Wunderground v.1.15,2013-05-02 07:55:00,
2013-05-02 04:00:00,68.7,67.5,29.95,South,180,1.0,1.0,96,0.00,,,0.00,Wunderground v.1.15,2013-05-02 08:00:00,
2013-05-02 04:05:00,68.7,67.5,29.95,South,180,0.0,1.0,96,0.00,,,0.00,Wunderground v.1.15,2013-05-02 08:05:00,
2013-05-02 04:10:00,68.8,67.6,29.95,South,180,0.0,1.0,96,0.00,,,0.00,Wunderground v.1.15,2013-05-02 08:10:00,
2013-05-02 04:15:00,68.8,67.6,29.95,South,180,1.0,1.0,96,0.00,,,0.00,Wunderground v.1.15,2013-05-02 08:15:00,
2013-05-02 04:20:00,68.8,67.6,29.95,South,180,0.0,1.0,96,0.00,,,0.00,Wunderground v.1.15,2013-05-02 08:20:00,
2013-05-02 04:30:00,68.8,67.6,29.95,South,180,0.0,1.0,96,0.00,,,0.00,Wunderground v.1.15,2013-05-02 08:30:00,
2013-05-02 04:35:00,68.8,67.6,29.95,South,180,0.0,1.0,96,0.00,,,0.00,Wunderground v.1.15,2013-05-02 08:35:00,
2013-05-02 04:40:00,68.8,67.6,29.95,South,180,0.0,1.0,96,0.00,,,0.00,Wunderground v.1.15,2013-05-02 08:40:00,
2013-05-02 04:45:00,68.9,67.7,29.95,South,180,0.0,1.0,96,0.00,,,0.00,Wunderground v.1.15,2013-05-02 08:45:00,
2013-05-02 04:50:00,68.9,67.7,29.95,South,180,0.0,1.0,96,0.00,,,0.01,Wunderground v.1.15,2013-05-02 08:50:00,
2013-05-02 04:55:00,68.9,67.7,29.95,South,180,0.0,1.0,96,0.17,,,0.02,Wunderground v.1.15,2013-05-02 08:55:00,
2013-05-02 05:05:00,68.9,67.7,29.95,South,180,0.0,1.0,96,0.10,,,0.04,Wunderground v.1.15,2013-05-02 09:05:00,
2013-05-02 05:10:00,68.9,67.7,29.95,South,180,0.0,1.0,96,0.19,,,0.06,Wunderground v.1.15,2013-05-02 09:10:00,
2013-05-02 05:15:00,68.9,67.7,29.95,South,180,0.0,1.0,96,0.18,,,0.07,Wunderground v.1.15,2013-05-02 09:15:00,
2013-05-02 05:20:00,68.9,67.7,29.95,South,180,0.0,1.0,96,0.07,,,0.07,Wunderground v.1.15,2013-05-02 09:20:00,
2013-05-02 05:30:00,69.0,67.8,29.95,WSW,250,2.0,2.0,96,0.05,,,0.08,Wunderground v.1.15,2013-05-02 09:30:00,
2013-05-02 05:35:00,68.9,67.7,29.95,WSW,250,1.0,2.0,96,0.05,,,0.08,Wunderground v.1.15,2013-05-02 09:35:00,
2013-05-02 05:40:00,68.9,67.7,29.95,WSW,250,0.0,1.0,96,0.04,,,0.08,Wunderground v.1.15,2013-05-02 09:40:00,
2013-05-02 05:45:00,68.9,67.7,29.96,WSW,250,0.0,1.0,96,0.00,,,0.09,Wunderground v.1.15,2013-05-02 09:45:00,
2013-05-02 05:50:00,68.8,67.6,29.96,WSW,250,0.0,1.0,96,0.00,,,0.09,Wunderground v.1.15,2013-05-02 09:50:00,
2013-05-02 05:55:00,68.8,67.6,29.96,WSW,250,0.0,1.0,96,0.06,,,0.10,Wunderground v.1.15,2013-05-02 09:55:00,
2013-05-02 06:00:00,68.5,67.3,29.96,WNW,282,0.0,1.0,96,0.06,,,0.10,Wunderground v.1.15,2013-05-02 10:00:00,
2013-05-02 06:05:00,68.2,67.0,29.96,WNW,297,1.0,1.0,96,0.06,,,0.10,Wunderground v.1.15,2013-05-02 10:05:00,
2013-05-02 06:15:00,67.6,66.1,29.97,WNW,298,0.0,3.0,95,0.10,,,0.12,Wunderground v.1.15,2013-05-02 10:15:00,
2013-05-02 06:20:00,67.2,65.7,29.97,WNW,297,1.0,1.0,95,0.24,,,0.14,Wunderground v.1.15,2013-05-02 10:20:00,
2013-05-02 06:25:00,67.0,65.8,29.97,WNW,300,1.0,1.0,96,0.17,,,0.15,Wunderground v.1.15,2013-05-02 10:25:00,
2013-05-02 06:30:00,66.7,65.2,29.97,West,267,0.0,1.0,95,0.15,,,0.16,Wunderground v.1.15,2013-05-02 10:30:00,
2013-05-02 06:35:00,66.6,65.1,29.97,NW,305,0.0,1.0,95,0.10,,,0.17,Wunderground v.1.15,2013-05-02 10:35:00,
2013-05-02 06:40:00,66.4,65.2,29.98,WNW,295,0.0,1.0,96,0.14,,,0.18,Wunderground v.1.15,2013-05-02 10:40:00,
2013-05-02 06:45:00,66.3,65.1,29.98,WNW,300,0.0,1.0,96,0.19,,,0.20,Wunderground v.1.15,2013-05-02 10:45:00,
2013-05-02 06:55:00,66.1,64.9,29.98,WNW,292,0.0,1.0,96,0.23,,,0.24,Wunderground v.1.15,2013-05-02 10:55:00,
2013-05-02 07:00:00,66.0,64.8,29.97,NW,324,0.0,0.0,96,0.13,,,0.25,Wunderground v.1.15,2013-05-02 11:00:00,
2013-05-02 07:05:00,65.9,64.7,29.97,NW,312,0.0,0.0,96,0.12,,,0.26,Wunderground v.1.15,2013-05-02 11:05:00,
2013-05-02 07:10:00,65.9,64.7,29.98,NW,312,0.0,0.0,96,0.14,,,0.27,Wunderground v.1.15,2013-05-02 11:10:00,
2013-05-02 07:15:00,65.8,64.6,29.98,NW,319,0.0,0.0,96,0.17,,,0.28,Wunderground v.1.15,2013-05-02 11:15:00,
2013-05-02 07:20:00,65.7,64.5,29.98,NW,312,0.0,0.0,96,0.12,,,0.29,Wunderground v.1.15,2013-05-02 11:20:00,
2013-05-02 07:25:00,65.7,64.5,29.98,NW,312,0.0,0.0,96,0.12,,,0.30,Wunderground v.1.15,2013-05-02 11:25:00,
2013-05-02 07:30:00,65.6,64.4,29.98,NW,312,0.0,0.0,96,0.10,,,0.31,Wunderground v.1.15,2013-05-02 11:30:00,
2013-05-02 07:35:00,65.5,64.0,29.97,NNW,331,0.0,0.0,95,0.15,,,0.32,Wunderground v.1.15,2013-05-02 11:35:00,
2013-05-02 07:40:00,65.4,63.9,29.97,NW,316,1.0,1.0,95,0.13,,,0.33,Wunderground v.1.15,2013-05-02 11:40:00,
2013-05-02 07:45:00,65.2,63.7,29.97,NW,316,0.0,1.0,95,0.07,,,0.34,Wunderground v.1.15,2013-05-02 11:45:00,
2013-05-02 07:50:00,65.1,63.9,29.98,NW,316,0.0,0.0,96,0.07,,,0.34,Wunderground v.1.15,2013-05-02 11:50:00,
2013-05-02 07:55:00,65.0,63.8,29.98,NW,313,0.0,0.0,96,0.10,,,0.35,Wunderground v.1.15,2013-05-02 11:55:00,
2013-05-02 08:05:00,65.0,63.8,29.98,NW,322,0.0,6.0,96,0.08,,,0.36,Wunderground v.1.15,2013-05-02 12:05:00,
2013-05-02 08:15:00,65.0,63.8,29.98,NW,322,0.0,6.0,96,0.00,,,0.36,Wunderground v.1.15,2013-05-02 12:15:00,
2013-05-02 08:20:00,65.2,64.0,29.98,NW,322,0.0,6.0,96,0.00,,,0.36,Wunderground v.1.15,2013-05-02 12:20:00,
2013-05-02 08:25:00,65.3,64.1,29.99,NW,322,0.0,6.0,96,0.00,,,0.36,Wunderground v.1.15,2013-05-02 12:25:00,
2013-05-02 08:30:00,65.5,64.3,29.99,NW,322,0.0,6.0,96,0.00,,,0.36,Wunderground v.1.15,2013-05-02 12:30:00,
2013-05-02 08:35:00,65.8,64.6,29.99,NW,308,0.0,6.0,96,0.00,,,0.37,Wunderground v.1.15,2013-05-02 12:35:00,
2013-05-02 08:45:00,66.1,64.9,29.99,WNW,286,0.0,6.0,96,0.10,,,0.39,Wunderground v.1.15,2013-05-02 12:45:00,
2013-05-02 08:50:00,66.3,65.1,29.99,WSW,250,1.0,1.0,96,0.12,,,0.40,Wunderground v.1.15,2013-05-02 12:50:00,
2013-05-02 08:55:00,66.3,65.1,29.99,WSW,250,0.0,6.0,96,0.08,,,0.40,Wunderground v.1.15,2013-05-02 12:55:00,
2013-05-02 09:00:00,66.4,65.2,29.99,WSW,249,0.0,6.0,96,0.08,,,0.41,Wunderground v.1.15,2013-05-02 13:00:00,
2013-05-02 09:05:00,66.5,65.3,29.99,WSW,249,0.0,6.0,96,0.06,,,0.41,Wunderground v.1.15,2013-05-02 13:05:00,
2013-05-02 09:15:00,66.6,65.4,29.99,West,275,0.0,6.0,96,0.00,,,0.41,Wunderground v.1.15,2013-05-02 13:15:00,
2013-05-02 09:20:00,66.7,65.5,29.99,SW,220,0.0,6.0,96,0.00,,,0.41,Wunderground v.1.15,2013-05-02 13:20:00,
2013-05-02 09:25:00,66.7,65.5,29.99,SW,220,0.0,6.0,96,0.00,,,0.42,Wunderground v.1.15,2013-05-02 13:25:00,
2013-05-02 09:30:00,66.7,65.5,29.99,SW,219,0.0,6.0,96,0.30,,,0.43,Wunderground v.1.15,2013-05-02 13:30:00,
2013-05-02 09:35:00,66.8,65.6,29.99,SW,219,0.0,6.0,96,0.36,,,0.46,Wunderground v.1.15,2013-05-02 13:35:00,
2013-05-02 09:40:00,66.8,65.6,29.99,SW,219,0.0,6.0,96,0.17,,,0.48,Wunderground v.1.15,2013-05-02 13:40:00,
2013-05-02 09:45:00,66.8,65.6,29.99,WSW,250,1.0,6.0,96,0.12,,,0.49,Wunderground v.1.15,2013-05-02 13:45:00,
2013-05-02 09:50:00,66.9,65.7,29.99,SW,226,1.0,1.0,96,0.24,,,0.51,Wunderground v.1.15,2013-05-02 13:50:00,
2013-05-02 09:55:00,66.9,65.7,29.99,SSW,208,0.0,6.0,96,0.28,,,0.53,Wunderground v.1.15,2013-05-02 13:55:00,
2013-05-02 10:00:00,67.0,65.8,29.99,SSW,209,0.0,6.0,96,0.16,,,0.55,Wunderground v.1.15,2013-05-02 14:00:00,
2013-05-02 10:05:00,67.0,65.8,29.99,SSW,206,1.0,6.0,96,0.13,,,0.56,Wunderground v.1.15,2013-05-02 14:05:00,
2013-05-02 10:10:00,67.0,65.8,29.99,West,275,1.0,6.0,96,0.10,,,0.56,Wunderground v.1.15,2013-05-02 14:10:00,
2013-05-02 10:15:00,66.9,65.7,29.99,SSW,213,1.0,6.0,96,0.06,,,0.56,Wunderground v.1.15,2013-05-02 14:15:00,
2013-05-02 10:20:00,66.7,65.5,29.99,SW,236,2.0,2.0,96,0.04,,,0.56,Wunderground v.1.15,2013-05-02 14:20:00,
2013-05-02 10:25:00,66.7,65.5,29.99,WSW,247,1.0,6.0,96,0.00,,,0.56,Wunderground v.1.15,2013-05-02 14:25:00,
2013-05-02 10:30:00,66.7,65.5,29.98,SW,216,1.0,1.0,96,0.00,,,0.56,Wunderground v.1.15,2013-05-02 14:30:00,
2013-05-02 10:35:00,66.7,65.5,29.99,West,281,1.0,6.0,96,0.00,,,0.57,Wunderground v.1.15,2013-05-02 14:35:00,
2013-05-02 10:40:00,66.7,65.5,29.99,WSW,243,1.0,1.0,96,0.00,,,0.57,Wunderground v.1.15,2013-05-02 14:40:00,
2013-05-02 10:45:00,66.8,65.6,29.99,WSW,243,0.0,6.0,96,0.00,,,0.57,Wunderground v.1.15,2013-05-02 14:45:00,
2013-05-02 10:50:00,66.9,65.7,29.99,WSW,243,0.0,6.0,96,0.00,,,0.57,Wunderground v.1.15,2013-05-02 14:50:00,
2013-05-02 10:55:00,67.0,65.8,29.99,WSW,244,1.0,6.0,96,0.00,,,0.57,Wunderground v.1.15,2013-05-02 14:55:00,
2013-05-02 11:05:00,67.2,66.0,29.98,WSW,244,0.0,6.0,96,0.00,,,0.58,Wunderground v.1.15,2013-05-02 15:05:00,
2013-05-02 11:10:00,67.4,66.2,29.98,WSW,244,0.0,6.0,96,0.00,,,0.58,Wunderground v.1.15,2013-05-02 15:10:00,
2013-05-02 11:15:00,67.5,66.3,29.99,WSW,244,0.0,6.0,96,0.00,,,0.58,Wunderground v.1.15,2013-05-02 15:15:00,
2013-05-02 11:25:00,67.8,66.9,29.99,WSW,241,0.0,6.0,97,0.00,,,0.58,Wunderground v.1.15,2013-05-02 15:25:00,
2013-05-02 11:30:00,67.9,67.0,29.99,WSW,241,0.0,6.0,97,0.00,,,0.58,Wunderground v.1.15,2013-05-02 15:30:00,
2013-05-02 11:35:00,68.0,67.1,29.99,West,262,1.0,6.0,97,0.00,,,0.59,Wunderground v.1.15,2013-05-02 15:35:00,
2013-05-02 11:45:00,68.0,66.8,29.99,WNW,285,1.0,6.0,96,0.06,,,0.60,Wunderground v.1.15,2013-05-02 15:45:00,
2013-05-02 11:50:00,68.0,66.8,29.98,West,276,1.0,1.0,96,0.06,,,0.60,Wunderground v.1.15,2013-05-02 15:50:00,
2013-05-02 11:55:00,68.1,66.9,29.97,WSW,241,1.0,6.0,96,0.05,,,0.60,Wunderground v.1.15,2013-05-02 15:55:00,
2013-05-02 12:00:00,68.4,67.5,29.97,SW,236,0.0,6.0,97,0.00,,,0.60,Wunderground v.1.15,2013-05-02 16:00:00,
2013-05-02 12:05:00,69.0,68.1,29.97,West,275,0.0,6.0,97,0.00,,,0.60,Wunderground v.1.15,2013-05-02 16:05:00,
2013-05-02 12:10:00,69.7,68.8,29.97,West,274,1.0,6.0,97,0.00,,,0.60,Wunderground v.1.15,2013-05-02 16:10:00,
2013-05-02 12:15:00,69.7,68.8,29.96,SW,223,2.0,6.0,97,0.00,,,0.60,Wunderground v.1.15,2013-05-02 16:15:00,
2013-05-02 12:20:00,69.8,68.9,29.97,SW,232,1.0,1.0,97,0.00,,,0.60,Wunderground v.1.15,2013-05-02 16:20:00,
2013-05-02 12:25:00,69.7,68.5,29.96,NW,322,0.0,6.0,96,0.00,,,0.60,Wunderground v.1.15,2013-05-02 16:25:00,
2013-05-02 12:30:00,69.4,68.2,29.96,SW,233,1.0,6.0,96,0.00,,,0.60,Wunderground v.1.15,2013-05-02 16:30:00,
2013-05-02 12:35:00,69.4,68.2,29.96,SSW,193,1.0,6.0,96,0.00,,,0.60,Wunderground v.1.15,2013-05-02 16:35:00,
2013-05-02 12:40:00,69.5,68.3,29.96,SW,225,0.0,6.0,96,0.00,,,0.60,Wunderground v.1.15,2013-05-02 16:40:00,
2013-05-02 12:45:00,69.7,68.5,29.96,SW,214,1.0,6.0,96,0.00,,,0.60,Wunderground v.1.15,2013-05-02 16:45:00,
2013-05-02 12:50:00,69.9,68.7,29.95,SSW,206,2.0,2.0,96,0.00,,,0.60,Wunderground v.1.15,2013-05-02 16:50:00,
2013-05-02 12:55:00,70.0,68.8,29.95,South,185,1.0,4.0,96,0.00,,,0.60,Wunderground v.1.15,2013-05-02 16:55:00,
2013-05-02 13:00:00,69.9,68.7,29.95,SW,228,2.0,6.0,96,0.00,,,0.60,Wunderground v.1.15,2013-05-02 17:00:00,
2013-05-02 13:05:00,69.8,68.6,29.95,SW,235,2.0,6.0,96,0.00,,,0.60,Wunderground v.1.15,2013-05-02 17:05:00,
2013-05-02 13:15:00,70.0,68.5,29.95,WSW,249,1.0,6.0,95,0.00,,,0.60,Wunderground v.1.15,2013-05-02 17:15:00,
2013-05-02 13:20:00,70.1,68.6,29.94,WSW,238,1.0,1.0,95,0.00,,,0.60,Wunderground v.1.15,2013-05-02 17:20:00,
2013-05-02 13:30:00,70.2,68.7,29.94,SW,223,0.0,6.0,95,0.00,,,0.60,Wunderground v.1.15,2013-05-02 17:30:00,
2013-05-02 13:35:00,70.1,68.6,29.94,SSW,212,1.0,6.0,95,0.00,,,0.60,Wunderground v.1.15,2013-05-02 17:35:00,
2013-05-02 13:40:00,70.2,68.7,29.94,SSW,212,1.0,1.0,95,0.00,,,0.60,Wunderground v.1.15,2013-05-02 17:40:00,
2013-05-02 13:45:00,70.4,68.9,29.94,SSW,194,0.0,6.0,95,0.00,,,0.60,Wunderground v.1.15,2013-05-02 17:45:00,
2013-05-02 13:55:00,70.3,68.8,29.93,SSW,195,0.0,6.0,95,0.00,,,0.60,Wunderground v.1.15,2013-05-02 17:55:00,
2013-05-02 14:00:00,70.4,68.9,29.93,SSW,195,0.0,6.0,95,0.00,,,0.60,Wunderground v.1.15,2013-05-02 18:00:00,
2013-05-02 14:05:00,70.7,69.2,29.92,SSW,203,1.0,6.0,95,0.00,,,0.60,Wunderground v.1.15,2013-05-02 18:05:00,
2013-05-02 14:10:00,70.9,69.4,29.92,SSW,195,3.0,3.0,95,0.00,,,0.60,Wunderground v.1.15,2013-05-02 18:10:00,
2013-05-02 14:15:00,71.0,69.5,29.93,South,189,3.0,6.0,95,0.00,,,0.60,Wunderground v.1.15,2013-05-02 18:15:00,
2013-05-02 14:25:00,71.0,69.2,29.92,SSW,199,1.0,6.0,94,0.00,,,0.60,Wunderground v.1.15,2013-05-02 18:25:00,
2013-05-02 14:30:00,70.9,69.1,29.92,SSW,212,0.0,6.0,94,0.00,,,0.60,Wunderground v.1.15,2013-05-02 18:30:00,
2013-05-02 14:35:00,71.0,69.2,29.92,SSW,199,1.0,6.0,94,0.00,,,0.60,Wunderground v.1.15,2013-05-02 18:35:00,
2013-05-02 14:40:00,71.0,69.2,29.92,SW,229,1.0,6.0,94,0.00,,,0.60,Wunderground v.1.15,2013-05-02 18:40:00,
2013-05-02 14:45:00,71.0,69.2,29.92,SW,222,1.0,6.0,94,0.00,,,0.60,Wunderground v.1.15,2013-05-02 18:45:00,
2013-05-02 14:50:00,71.0,69.2,29.92,SW,222,0.0,6.0,94,0.00,,,0.60,Wunderground v.1.15,2013-05-02 18:50:00,
2013-05-02 15:00:00,71.0,69.2,29.91,SW,221,0.0,6.0,94,0.00,,,0.61,Wunderground v.1.15,2013-05-02 19:00:00,
2013-05-02 15:05:00,71.0,69.2,29.91,SW,221,0.0,6.0,94,0.00,,,0.61,Wunderground v.1.15,2013-05-02 19:05:00,
2013-05-02 15:10:00,71.0,69.2,29.92,SW,221,0.0,6.0,94,0.06,,,0.62,Wunderground v.1.15,2013-05-02 19:10:00,
2013-05-02 15:15:00,70.9,69.1,29.92,SW,221,0.0,6.0,94,1.28,,,0.73,Wunderground v.1.15,2013-05-02 19:15:00,
2013-05-02 15:20:00,70.8,69.0,29.91,SW,221,0.0,6.0,94,2.06,,,0.86,Wunderground v.1.15,2013-05-02 19:20:00,
2013-05-02 15:30:00,70.6,68.8,29.90,SSE,148,2.0,6.0,94,1.91,,,1.19,Wunderground v.1.15,2013-05-02 19:30:00,
2013-05-02 15:35:00,70.4,68.6,29.90,SSE,147,3.0,6.0,94,1.64,,,1.32,Wunderground v.1.15,2013-05-02 19:35:00,
2013-05-02 15:40:00,70.1,68.3,29.91,SSE,164,2.0,6.0,94,1.36,,,1.43,Wunderground v.1.15,2013-05-02 19:40:00,
2013-05-02 15:45:00,69.8,68.0,29.91,SSE,149,2.0,6.0,94,1.03,,,1.60,Wunderground v.1.15,2013-05-02 19:45:00,
2013-05-02 15:50:00,69.6,67.8,29.91,South,170,1.0,6.0,94,1.19,,,1.71,Wunderground v.1.15,2013-05-02 19:50:00,
2013-05-02 15:55:00,69.3,67.5,29.91,SSE,167,1.0,6.0,94,2.70,,,1.84,Wunderground v.1.15,2013-05-02 19:55:00,
2013-05-02 16:00:00,69.0,67.2,29.90,South,185,2.0,6.0,94,1.71,,,2.00,Wunderground v.1.15,2013-05-02 20:00:00,
2013-05-02 16:05:00,68.8,67.3,29.90,East,89,4.0,6.0,95,0.29,,,2.04,Wunderground v.1.15,2013-05-02 20:05:00,
2013-05-02 16:10:00,68.8,67.3,29.90,ENE,71,3.0,3.0,95,0.21,,,2.07,Wunderground v.1.15,2013-05-02 20:10:00,
2013-05-02 16:15:00,68.8,67.3,29.90,ENE,72,2.0,6.0,95,0.17,,,2.08,Wunderground v.1.15,2013-05-02 20:15:00,
2013-05-02 16:20:00,68.8,67.3,29.90,East,83,1.0,6.0,95,0.10,,,2.09,Wunderground v.1.15,2013-05-02 20:20:00,
2013-05-02 16:25:00,68.8,67.3,29.89,East,87,1.0,6.0,95,0.14,,,2.10,Wunderground v.1.15,2013-05-02 20:25:00,
2013-05-02 16:30:00,68.9,67.4,29.89,East,87,1.0,1.0,95,0.09,,,2.10,Wunderground v.1.15,2013-05-02 20:30:00,
2013-05-02 16:35:00,68.9,67.4,29.89,NE,47,0.0,6.0,95,0.05,,,2.10,Wunderground v.1.15,2013-05-02 20:35:00,
2013-05-02 16:40:00,68.9,67.4,29.89,NE,47,0.0,6.0,95,0.04,,,2.10,Wunderground v.1.15,2013-05-02 20:40:00,
2013-05-02 16:45:00,69.0,67.5,29.89,NE,47,0.0,6.0,95,0.00,,,2.11,Wunderground v.1.15,2013-05-02 20:45:00,
2013-05-02 16:50:00,69.0,67.5,29.89,NE,47,0.0,6.0,95,0.13,,,2.12,Wunderground v.1.15,2013-05-02 20:50:00,
2013-05-02 16:55:00,69.0,67.5,29.89,NE,47,0.0,6.0,95,0.16,,,2.14,Wunderground v.1.15,2013-05-02 20:55:00,
2013-05-02 17:00:00,69.0,67.8,29.89,East,85,0.0,6.0,96,0.12,,,2.15,Wunderground v.1.15,2013-05-02 21:00:00,
2013-05-02 17:05:00,69.0,67.8,29.89,East,85,1.0,6.0,96,0.11,,,2.15,Wunderground v.1.15,2013-05-02 21:05:00,
2013-05-02 17:10:00,69.1,67.9,29.89,East,85,1.0,1.0,96,0.06,,,2.15,Wunderground v.1.15,2013-05-02 21:10:00,
2013-05-02 17:15:00,69.1,67.9,29.89,East,86,1.0,2.0,96,0.06,,,2.16,Wunderground v.1.15,2013-05-02 21:15:00,
2013-05-02 17:20:00,69.1,67.9,29.88,East,89,2.0,2.0,96,0.06,,,2.17,Wunderground v.1.15,2013-05-02 21:20:00,
2013-05-02 17:25:00,69.1,67.9,29.88,East,89,2.0,6.0,96,0.18,,,2.18,Wunderground v.1.15,2013-05-02 21:25:00,
2013-05-02 17:30:00,69.2,68.0,29.88,East,89,1.0,6.0,96,0.09,,,2.18,Wunderground v.1.15,2013-05-02 21:30:00,
2013-05-02 17:35:00,69.2,68.0,29.88,East,89,1.0,6.0,96,0.05,,,2.19,Wunderground v.1.15,2013-05-02 21:35:00,
2013-05-02 17:40:00,69.3,68.1,29.88,East,89,0.0,6.0,96,0.05,,,2.19,Wunderground v.1.15,2013-05-02 21:40:00,
2013-05-02 17:45:00,69.4,68.2,29.88,East,89,0.0,6.0,96,0.05,,,2.19,Wunderground v.1.15,2013-05-02 21:45:00,
2013-05-02 17:50:00,69.4,68.2,29.88,WNW,285,0.0,6.0,96,0.04,,,2.19,Wunderground v.1.15,2013-05-02 21:50:00,
2013-05-02 17:55:00,69.5,68.3,29.88,SW,223,1.0,6.0,96,0.04,,,2.20,Wunderground v.1.15,2013-05-02 21:55:00,
2013-05-02 18:00:00,69.5,68.3,29.88,SW,223,1.0,1.0,96,0.04,,,2.20,Wunderground v.1.15,2013-05-02 22:00:00,
2013-05-02 18:05:00,69.6,68.4,29.87,SW,223,0.0,6.0,96,0.04,,,2.20,Wunderground v.1.15,2013-05-02 22:05:00,
2013-05-02 18:10:00,69.6,68.4,29.88,ENE,68,0.0,6.0,96,0.00,,,2.20,Wunderground v.1.15,2013-05-02 22:10:00,
2013-05-02 18:15:00,69.6,68.4,29.88,ENE,68,0.0,6.0,96,0.00,,,2.20,Wunderground v.1.15,2013-05-02 22:15:00,
2013-05-02 18:20:00,69.6,68.4,29.88,East,84,1.0,6.0,96,0.00,,,2.20,Wunderground v.1.15,2013-05-02 22:20:00,
2013-05-02 18:25:00,69.6,68.4,29.87,NE,44,2.0,6.0,96,0.00,,,2.20,Wunderground v.1.15,2013-05-02 22:25:00,
2013-05-02 18:30:00,69.6,68.4,29.87,ENE,70,1.0,6.0,96,0.00,,,2.20,Wunderground v.1.15,2013-05-02 22:30:00,
2013-05-02 18:35:00,69.6,68.4,29.87,East,82,0.0,6.0,96,0.00,,,2.20,Wunderground v.1.15,2013-05-02 22:35:00,
2013-05-02 18:40:00,69.6,68.4,29.87,ESE,114,1.0,1.0,96,0.00,,,2.20,Wunderground v.1.15,2013-05-02 22:40:00,
2013-05-02 18:45:00,69.6,68.4,29.87,SE,124,1.0,6.0,96,0.00,,,2.20,Wunderground v.1.15,2013-05-02 22:45:00,
2013-05-02 18:50:00,69.5,68.3,29.87,SE,124,0.0,6.0,96,0.00,,,2.20,Wunderground v.1.15,2013-05-02 22:50:00,
2013-05-02 18:55:00,69.5,68.3,29.87,SE,124,0.0,6.0,96,0.00,,,2.20,Wunderground v.1.15,2013-05-02 22:55:00,
2013-05-02 19:00:00,69.5,68.3,29.87,SE,129,0.0,6.0,96,0.00,,,2.20,Wunderground v.1.15,2013-05-02 23:00:00,
2013-05-02 19:05:00,69.4,68.2,29.87,SE,133,1.0,6.0,96,0.00,,,2.20,Wunderground v.1.15,2013-05-02 23:05:00,
2013-05-02 19:10:00,69.4,68.2,29.87,SE,133,1.0,1.0,96,0.00,,,2.20,Wunderground v.1.15,2013-05-02 23:10:00,
2013-05-02 19:20:00,69.4,68.2,29.87,SE,133,0.0,6.0,96,0.00,,,2.20,Wunderground v.1.15,2013-05-02 23:20:00,
2013-05-02 19:25:00,69.3,68.1,29.87,SE,133,0.0,6.0,96,0.00,,,2.21,Wunderground v.1.15,2013-05-02 23:25:00,
2013-05-02 19:35:00,69.3,68.1,29.86,SE,133,0.0,6.0,96,0.05,,,2.22,Wunderground v.1.15,2013-05-02 23:35:00,
2013-05-02 19:40:00,69.2,68.0,29.86,SE,133,0.0,6.0,96,0.05,,,2.22,Wunderground v.1.15,2013-05-02 23:40:00,
2013-05-02 19:45:00,69.2,68.0,29.86,SE,133,0.0,6.0,96,0.07,,,2.23,Wunderground v.1.15,2013-05-02 23:45:00,
2013-05-02 19:50:00,69.2,68.0,29.86,SE,133,0.0,6.0,96,0.07,,,2.23,Wunderground v.1.15,2013-05-02 23:50:00,
2013-05-02 19:55:00,69.1,67.9,29.86,SE,133,0.0,6.0,96,0.07,,,2.24,Wunderground v.1.15,2013-05-02 23:55:00,
2013-05-02 20:00:00,69.1,67.9,29.86,SE,133,0.0,6.0,96,0.07,,,2.24,Wunderground v.1.15,2013-05-03 00:00:00,
2013-05-02 20:05:00,69.1,67.9,29.86,SE,133,0.0,6.0,96,0.05,,,2.25,Wunderground v.1.15,2013-05-03 00:05:00,
2013-05-02 20:10:00,69.1,67.9,29.86,SE,133,0.0,6.0,96,0.05,,,2.25,Wunderground v.1.15,2013-05-03 00:10:00,
2013-05-02 20:15:00,69.0,67.8,29.86,SE,133,0.0,6.0,96,0.06,,,2.26,Wunderground v.1.15,2013-05-03 00:15:00,
2013-05-02 20:20:00,69.0,68.1,29.87,SE,133,0.0,6.0,97,0.06,,,2.26,Wunderground v.1.15,2013-05-03 00:20:00,
2013-05-02 20:25:00,69.1,68.2,29.87,SE,133,0.0,6.0,97,0.07,,,2.27,Wunderground v.1.15,2013-05-03 00:25:00,
2013-05-02 20:30:00,69.0,68.1,29.87,SE,133,0.0,6.0,97,0.10,,,2.28,Wunderground v.1.15,2013-05-03 00:30:00,
2013-05-02 20:35:00,69.0,68.1,29.86,SE,133,0.0,6.0,97,0.08,,,2.28,Wunderground v.1.15,2013-05-03 00:35:00,
2013-05-02 20:40:00,69.0,68.1,29.86,SE,133,0.0,6.0,97,0.07,,,2.29,Wunderground v.1.15,2013-05-03 00:40:00,
2013-05-02 20:45:00,69.0,68.1,29.86,SE,133,0.0,6.0,97,0.08,,,2.30,Wunderground v.1.15,2013-05-03 00:45:00,
2013-05-02 20:50:00,69.0,67.8,29.86,SE,133,0.0,6.0,96,0.08,,,2.30,Wunderground v.1.15,2013-05-03 00:50:00,
2013-05-02 20:55:00,68.9,67.7,29.86,SE,133,0.0,6.0,96,0.05,,,2.30,Wunderground v.1.15,2013-05-03 00:55:00,
2013-05-02 21:00:00,68.9,67.7,29.87,SE,133,0.0,6.0,96,0.00,,,2.30,Wunderground v.1.15,2013-05-03 01:00:00,
2013-05-02 21:05:00,68.9,67.7,29.87,SE,133,0.0,6.0,96,0.00,,,2.31,Wunderground v.1.15,2013-05-03 01:05:00,
2013-05-02 21:10:00,68.8,67.6,29.87,SE,133,0.0,6.0,96,0.00,,,2.31,Wunderground v.1.15,2013-05-03 01:10:00,
2013-05-02 21:15:00,68.9,67.7,29.87,SE,133,0.0,6.0,96,0.00,,,2.31,Wunderground v.1.15,2013-05-03 01:15:00,
2013-05-02 21:25:00,68.8,67.6,29.88,SE,133,0.0,6.0,96,0.00,,,2.31,Wunderground v.1.15,2013-05-03 01:25:00,
2013-05-02 21:35:00,68.8,67.6,29.88,SE,133,0.0,6.0,96,0.00,,,2.32,Wunderground v.1.15,2013-05-03 01:35:00,
2013-05-02 21:45:00,68.8,67.6,29.88,SE,133,0.0,6.0,96,0.00,,,2.32,Wunderground v.1.15,2013-05-03 01:45:00,
2013-05-02 21:55:00,68.8,67.9,29.88,SE,133,0.0,6.0,97,0.00,,,2.33,Wunderground v.1.15,2013-05-03 01:55:00,
2013-05-02 22:00:00,68.8,67.9,29.88,SE,133,0.0,6.0,97,0.00,,,2.33,Wunderground v.1.15,2013-05-03 02:00:00,
2013-05-02 22:05:00,68.8,67.6,29.88,SE,133,0.0,6.0,96,0.00,,,2.33,Wunderground v.1.15,2013-05-03 02:05:00,
2013-05-02 22:10:00,68.8,67.6,29.88,SE,133,0.0,6.0,96,0.00,,,2.33,Wunderground v.1.15,2013-05-03 02:10:00,
2013-05-02 22:15:00,68.8,67.9,29.89,SE,133,0.0,6.0,97,0.00,,,2.34,Wunderground v.1.15,2013-05-03 02:15:00,
2013-05-02 22:20:00,68.7,67.8,29.89,SE,133,0.0,6.0,97,0.00,,,2.34,Wunderground v.1.15,2013-05-03 02:20:00,
2013-05-02 22:25:00,68.7,67.8,29.88,SE,133,0.0,6.0,97,0.00,,,2.34,Wunderground v.1.15,2013-05-03 02:25:00,
2013-05-02 22:30:00,68.7,67.8,29.88,SE,133,0.0,6.0,97,0.00,,,2.34,Wunderground v.1.15,2013-05-03 02:30:00,
2013-05-02 22:35:00,68.7,67.8,29.88,SE,133,0.0,6.0,97,0.00,,,2.35,Wunderground v.1.15,2013-05-03 02:35:00,
2013-05-02 22:40:00,68.8,67.9,29.88,SE,133,0.0,6.0,97,0.00,,,2.35,Wunderground v.1.15,2013-05-03 02:40:00,
2013-05-02 22:50:00,68.8,67.9,29.89,SE,133,0.0,6.0,97,0.00,,,2.35,Wunderground v.1.15,2013-05-03 02:50:00,
2013-05-02 23:00:00,68.8,67.9,29.88,SE,133,0.0,6.0,97,0.00,,,2.36,Wunderground v.1.15,2013-05-03 03:00:00,
2013-05-02 23:05:00,68.8,67.9,29.89,SE,133,0.0,6.0,97,0.00,,,2.36,Wunderground v.1.15,2013-05-03 03:05:00,
2013-05-02 23:10:00,68.7,67.8,29.89,SE,133,0.0,6.0,97,0.00,,,2.36,Wunderground v.1.15,2013-05-03 03:10:00,
2013-05-02 23:15:00,68.7,67.8,29.89,SE,133,0.0,6.0,97,0.00,,,2.36,Wunderground v.1.15,2013-05-03 03:15:00,
2013-05-02 23:20:00,68.7,67.8,29.88,SE,133,0.0,6.0,97,0.00,,,2.36,Wunderground v.1.15,2013-05-03 03:20:00,
2013-05-02 23:25:00,68.6,67.7,29.88,SE,133,0.0,6.0,97,0.00,,,2.36,Wunderground v.1.15,2013-05-03 03:25:00,
2013-05-02 23:35:00,68.6,67.7,29.88,SE,133,0.0,6.0,97,0.00,,,2.36,Wunderground v.1.15,2013-05-03 03:35:00,
2013-05-02 23:40:00,68.5,67.6,29.88,SE,133,0.0,6.0,97,0.00,,,2.36,Wunderground v.1.15,2013-05-03 03:40:00,
2013-05-02 23:50:00,68.5,67.6,29.88,SE,133,0.0,6.0,97,0.00,,,2.36,Wunderground v.1.15,2013-05-03 03:50:00,
2013-05-02 23:55:00,68.4,67.5,29.88,SE,133,0.0,6.0,97,0.00,,,2.36,Wunderground v.1.15,2013-05-03 03:55:00,